Regional Weather Roundup
Issued by NWS

Home | Current Version | Previous Version | Text Only | Print | Product List | Glossary Off
Versions: 1 2 3 4 5 6 7 8 9 10 11 12 13 14 15 16 17 18 19 20 21 22 23 24 25 26 27 28 29 30 31 32 33 34 35 36 37 38 39 40 41 42 43 44 45 46 47 48 49 50

000
ASUS43 KBIS 102002
RWRND

NORTH DAKOTA REGIONAL WEATHER ROUNDUP
NATIONAL WEATHER SERVICE BISMARCK ND
200 PM CST SUN DEC 10 2017

NOTE: "FAIR" INDICATES FEW OR NO CLOUDS BELOW 12,000 FEET WITH NO
SIGNIFICANT WEATHER AND/OR OBSTRUCTIONS TO VISIBILITY.


NDZ001>003-009>011-017-102100-
NORTHWEST NORTH DAKOTA

CITY           SKY/WX    TMP DP  RH WIND       PRES   REMARKS
WILLISTON      CLOUDY    45  22  40 CALM      30.05S
MINOT          CLOUDY    47  25  42 NW15      29.97F
MINOT AFB      CLOUDY    45  25  45 NW15      29.96F
$$

NDZ018>021-031>035-040>046-102100-
SOUTHWEST NORTH DAKOTA

CITY           SKY/WX    TMP DP  RH WIND       PRES   REMARKS
BISMARCK       PTSUNNY   50  27  40 W13       30.03F
DICKINSON      CLOUDY    49  23  36 W17       30.04F
GARRISON         N/A     44  23  43 NW16      30.00F
HETTINGER ARPT CLOUDY    53  14  21 W22       30.09F
$$

NDZ004>008-012>016-024-026-027-054-102100-
NORTHEAST NORTH DAKOTA

CITY           SKY/WX    TMP DP  RH WIND       PRES   REMARKS
GRAND FORKS    CLOUDY    26  19  74 CALM      30.02F
GRND FRKS AFB  CLOUDY    27  18  70 CALM      30.01F
DEVILS LAKE    CLOUDY    32  27  81 SW5       29.98F
$$

NDZ022-023-025-028>030-036>039-047>053-102100-
SOUTHEAST NORTH DAKOTA

CITY           SKY/WX    TMP DP  RH WIND       PRES   REMARKS
FARGO          CLOUDY    28  20  71 N3        30.03F
JAMESTOWN      CLOUDY    37  28  70 W9        29.99S
$$





USA.gov is the U.S. government's official web portal to all federal, state and local government web resources and services.